Location: Newark
(29.9790°N, 31.1340°E)
Time: 15:58:26
(UTC+00:00)

Explorer 11/Cluster Stage 4 - All Passes

Search period start: 26 January 2020 00:00
Search period end: 05 February 2020 00:00
Orbit: 467 x 1259 km, 28.8° (Epoch: 26 January)

Date Brightness Start Highest point End Pass type
(mag) Time Alt. Az. Time Alt. Az. Time Alt. Az.
26 Jan - 08:09:29 10° S 08:13:11 14° SE 08:16:59 10° ESE daylight
26 Jan - 09:54:24 10° SW 10:01:44 39° SSE 10:09:11 10° E daylight
26 Jan - 11:42:40 10° WSW 11:50:55 71° SSE 11:58:38 10° E daylight
26 Jan - 13:32:12 10° W 13:40:23 83° S 13:47:26 10° E daylight
26 Jan - 15:22:05 10° W 15:29:31 60° SSW 15:35:37 10° ESE daylight
26 Jan - 17:12:39 10° W 17:17:47 24° SSW 17:22:10 10° SSE visible
27 Jan - 07:57:49 10° S 08:02:12 16° SE 08:06:48 10° ESE daylight
27 Jan - 09:43:22 10° SW 09:50:46 43° SSE 09:58:25 10° E daylight
27 Jan - 11:31:45 10° WSW 11:40:00 74° S 11:47:53 10° E daylight
27 Jan - 13:21:16 10° W 13:29:31 82° S 13:36:46 10° E daylight
27 Jan - 15:11:08 10° W 15:18:40 56° SSW 15:24:57 10° ESE daylight
27 Jan - 17:01:56 10° W 17:06:55 21° SSW 17:11:14 10° SSE visible
28 Jan - 07:46:23 10° S 07:51:13 19° SE 07:56:24 10° ESE daylight
28 Jan - 09:32:23 10° SW 09:39:47 48° SSE 09:47:37 10° E daylight
28 Jan - 11:20:52 10° WSW 11:29:05 77° S 11:37:07 10° E daylight
28 Jan - 13:10:20 10° W 13:18:38 81° S 13:26:05 10° E daylight
28 Jan - 15:00:11 10° W 15:07:48 52° SSW 15:14:14 10° SE daylight
28 Jan - 16:51:17 10° WSW 16:56:02 19° SW 17:00:13 10° S visible
29 Jan - 07:35:08 10° SSW 07:40:15 21° SSE 07:45:52 10° ESE daylight
29 Jan - 09:21:28 10° SW 09:28:49 52° SSE 09:36:47 10° E daylight
29 Jan - 11:10:01 10° WSW 11:18:10 80° S 11:26:18 10° E daylight
29 Jan - 12:59:26 10° W 13:07:44 79° S 13:15:21 10° ESE daylight
29 Jan - 14:49:16 10° W 14:56:53 48° SSW 15:03:27 10° SE daylight
29 Jan - 16:40:43 10° WSW 16:45:07 17° SW 16:49:05 10° S visible
30 Jan - 07:23:59 10° SSW 07:29:17 24° SSE 07:35:13 10° E daylight
30 Jan - 09:10:37 10° WSW 09:17:52 56° SSE 09:25:55 10° E daylight
30 Jan - 10:59:11 10° W 11:07:15 82° S 11:15:28 10° E daylight
30 Jan - 12:48:33 10° W 12:56:50 76° S 13:04:35 10° ESE daylight
30 Jan - 14:38:23 10° W 14:45:57 44° SSW 14:52:37 10° SE daylight
30 Jan - 16:30:16 10° WSW 16:34:11 15° SW 16:37:48 10° S visible
31 Jan - 07:12:57 10° SSW 07:18:20 26° SSE 07:24:30 10° E daylight
31 Jan - 08:59:49 10° WSW 09:06:56 60° SSE 09:15:00 10° E daylight
31 Jan - 10:48:24 10° W 10:56:20 83° S 11:04:38 10° E daylight
31 Jan - 12:37:40 10° W 12:45:55 73° SSW 12:53:47 10° ESE daylight
31 Jan - 14:27:31 10° W 14:35:00 40° SSW 14:41:44 10° SE daylight
31 Jan - 16:20:01 10° WSW 16:23:14 13° SW 16:26:16 10° S visible
01 Feb - 07:02:00 10° SSW 07:07:24 29° SSE 07:13:43 10° E daylight
01 Feb - 08:49:04 10° WSW 08:56:02 64° SSE 09:04:05 10° E daylight
01 Feb - 10:37:39 10° W 10:45:26 83° S 10:53:46 10° E daylight
01 Feb - 12:26:50 10° W 12:34:59 69° SSW 12:42:57 10° ESE daylight
01 Feb - 14:16:42 10° W 14:24:03 36° SSW 14:30:46 10° SE daylight
01 Feb - 16:10:12 10° SW 16:12:18 11° SW 16:14:19 10° SSW visible
02 Feb - 06:51:08 10° SSW 06:56:30 32° SSE 07:02:53 10° E daylight
02 Feb - 08:38:21 10° WSW 08:45:09 68° SSE 08:53:09 10° E daylight
02 Feb - 10:26:54 10° W 10:34:32 83° S 10:42:52 10° E daylight
02 Feb - 12:16:00 10° W 12:24:03 65° SSW 12:32:04 10° ESE daylight
02 Feb - 14:05:56 10° W 14:13:04 33° SSW 14:19:45 10° SSE daylight
03 Feb - 06:40:19 10° SW 06:45:37 35° SSE 06:52:01 10° E daylight
03 Feb - 08:27:40 10° WSW 08:34:17 72° SSE 08:42:11 10° E daylight
03 Feb - 10:16:11 10° W 10:23:39 82° S 10:31:58 10° E daylight
03 Feb - 12:05:13 10° W 12:13:06 61° SSW 12:21:09 10° ESE daylight
03 Feb - 13:55:14 10° W 14:02:04 29° SSW 14:08:37 10° SSE daylight
04 Feb - 04:46:20 10° SSE 04:47:03 10° SE 04:47:48 10° SE daylight
04 Feb - 06:29:34 10° SW 06:34:46 39° SSE 06:41:09 10° E daylight
04 Feb - 08:17:03 10° WSW 08:23:27 75° S 08:31:14 10° E daylight
04 Feb - 10:05:30 10° W 10:12:46 81° S 10:21:02 10° E daylight
04 Feb - 11:54:27 10° W 12:02:09 56° SSW 12:10:10 10° ESE daylight
04 Feb - 13:44:35 10° W 13:51:05 26° SSW 13:57:24 10° SSE daylight
